Flag for U.S.A. Weather past 2 weeks in New Bedford, Massachusetts, U.S.A.

Now
56 °F

Fog.


Feels Like: 56 °F
Forecast: 56 / 79 °F
Wind: No wind

Location: New Bedford Regional Airport

Current Time: May 29, 2015 at 4:47:54 AM

Latest Report: May 29, 2015 at 3:55 AM


Visibility: 1 mi

Pressure: 30.23 "Hg

Humidity: 93%

Dew point: 54 °F

Location of New BedfordLocation

Historic Weather in New Bedford — Graph

°F

New Bedford temperature yesterday

Maximum temperature yesterday: 72 °F (at 1:53 PM)
Minimum temperature yesterday: 61 °F (at 11:53 PM)
Average temperature yesterday: 66 °F

Past Weeks' High & Low Weather Summary

 TemperatureHumidityPressure
High80 °F (May 17, 12:53 PM)100% (May 17, 4:53 AM)30.33 "Hg (May 17, 4:53 AM)
Low40 °F (May 14, 2:53 AM)24% (May 22, 5:53 PM)29.71 "Hg (May 20, 12:53 AM)
Average60 °F69%30.12 "Hg
* Reported May 14 2:53 AM — May 29 2:53 AM, New Bedford, Weather by CustomWeather, © 2015

Note: Actual official high and low records may vary slightly from our data, if they occured in-between our weather recording intervals... More about our weather records

Advertising

New Bedford weather history for previous 24 hours

 ConditionsComfort  
Time TempWeatherWind HumidityBarometerVisibility
2:53 AM
Fri, May 29
56 °FPassing clouds.No wind93%30.22 "Hg8 mi
1:53 AM56 °FFog.No wind97%30.21 "Hg1 mi
12:53 AM60 °FFog.No wind93%30.21 "Hg6 mi
11:53 PM
Thu, May 28
61 °FClear.No wind93%30.20 "Hg10 mi
10:53 PM64 °FOvercast.3 mph90%30.19 "Hg10 mi
9:53 PM64 °FMostly cloudy.No wind90%30.19 "Hg10 mi
8:53 PM63 °FSunny.6 mph90%30.16 "Hg10 mi
7:53 PM64 °FSunny.12 mph90%30.14 "Hg10 mi
6:53 PM67 °FSunny.12 mph81%30.14 "Hg10 mi
5:53 PM67 °FPartly sunny.18 mph85%30.12 "Hg10 mi
4:53 PM69 °FPartly sunny.18 mph79%30.11 "Hg10 mi
3:53 PM71 °FPassing clouds.20 mph73%30.12 "Hg10 mi
2:53 PM72 °FSunny.18 mph73%30.13 "Hg10 mi
1:53 PM72 °FOvercast.16 mph73%30.14 "Hg10 mi
12:53 PM69 °FOvercast.15 mph79%30.16 "Hg10 mi
11:53 AM69 °FPartly sunny.16 mph79%30.16 "Hg10 mi
10:53 AM70 °FPartly sunny.14 mph76%30.17 "Hg10 mi
9:53 AM69 °FOvercast.15 mph79%30.18 "Hg10 mi
8:53 AM67 °FOvercast.14 mph81%30.19 "Hg10 mi
7:53 AM66 °FPartly sunny.14 mph84%30.18 "Hg10 mi
6:53 AM64 °FPartly sunny.13 mph87%30.17 "Hg10 mi
6:03 AM62 °FPartly cloudy.14 mph90%30.17 "Hg10 mi
5:53 AM62 °FPassing clouds.13 mph90%30.17 "Hg10 mi
4:53 AM63 °FMostly cloudy.12 mph87%30.15 "Hg10 mi
Weather by CustomWeather, © 2015

See weather overviewHow to use our weather pages